User: anonymous   Login
Location: Pine Mountain Observatory
(43.7910°N, 120.9377°W)
Time: 11:24:49
(UTC-07:00)
Language:

Meteor 2-19 Rocket - Orbit

View from above orbital plane
View from above orbital plane
View from above satellite
View from above satellite

Ground track
Ground track

The orbit data is extracted from the following two-line orbital elements,

1 20671U 90057B   17266.13689233  .00000020  00000-0  41934-5 0  9992
2 20671  82.5445 294.2568 0016127  45.7594 314.4888 13.84609830376625
Epoch (UTC): 23 September 2017 03:17:07
Eccentricity: 0.0016127
inclination: 82.5445°
perigee height: 936 km
apogee height: 959 km
right ascension of ascending node: 294.2568°
argument of perigee: 45.7594°
revolutions per day: 13.84609830
mean anomaly at epoch: 314.4888°
orbit number at epoch: 37662

The dashed part of the orbit path shows where the satellite is in the earth's shadow,  

DLR